| time (UTC) | temp C | wind direction | speed KPH | gust KPH | rain 1hr cm | rain 24hr cm | rain mn cm | humidity % | barometer mb |
| 20260505195752 | 16 | 213 | 0.0 | 1.6 | 0.00 | 0.00 | 0.00 | 77 | 1019.3 |
| 20260505195250 | 16 | 180 | 3.2 | 3.2 | 0.00 | 0.00 | 0.00 | 76 | 1019.3 |
| 20260505194747 | 16 | 220 | 1.6 | 1.6 | 0.00 | 0.00 | 0.00 | 76 | 1019.3 |
| 20260505194244 | 16 | 199 | 3.2 | 3.2 | 0.00 | 0.00 | 0.00 | 77 | 1019.3 |
| 20260505193739 | 16 | 178 | 3.2 | 3.2 | 0.00 | 0.00 | 0.00 | 75 | 1019.6 |
| 20260505193237 | 16 | 205 | 1.6 | 1.6 | 0.00 | 0.00 | 0.00 | 75 | 1019.3 |
| 20260505192736 | 16 | 209 | 0.0 | 0.0 | 0.00 | 0.00 | 0.00 | 78 | 1019.6 |
| 20260505192233 | 16 | 209 | 0.0 | 1.6 | 0.00 | 0.00 | 0.00 | 77 | 1019.6 |
| 20260505191731 | 16 | 218 | 0.0 | 0.0 | 0.00 | 0.00 | 0.00 | 75 | 1019.6 |
| 20260505191229 | 16 | 228 | 0.0 | 1.6 | 0.00 | 0.00 | 0.00 | 75 | 1019.6 |
| 20260505190725 | 16 | 203 | 0.0 | 1.6 | 0.00 | 0.00 | 0.00 | 74 | 1019.6 |
| 20260505190225 | 16 | 212 | 0.0 | 0.0 | 0.00 | 0.00 | 0.00 | 76 | 1019.6 |
| 20260505185722 | 16 | 232 | 1.6 | 3.2 | 0.00 | 0.00 | 0.00 | 77 | 1019.3 |
| 20260505185218 | 16 | 203 | 1.6 | 1.6 | 0.00 | 0.00 | 0.00 | 75 | 1019.6 |
| 20260505184714 | 16 | 220 | 0.0 | 1.6 | 0.00 | 0.00 | 0.00 | 75 | 1019.3 |
| 20260505184212 | 16 | 222 | 1.6 | 1.6 | 0.00 | 0.00 | 0.00 | 76 | 1019.6 |
| 20260505183708 | 16 | 226 | 0.0 | 0.0 | 0.00 | 0.00 | 0.00 | 76 | 1019.3 |
| 20260505183206 | 15 | 214 | 1.6 | 1.6 | 0.00 | 0.00 | 0.00 | 77 | 1019.3 |
| 20260505182702 | 15 | 254 | 1.6 | 3.2 | 0.00 | 0.00 | 0.00 | 77 | 1019.3 |
| 20260505182159 | 15 | 207 | 0.0 | 0.0 | 0.00 | 0.00 | 0.00 | 77 | 1019.6 |
| 20260505181655 | 15 | 220 | 0.0 | 0.0 | 0.00 | 0.00 | 0.00 | 79 | 1019.6 |
| 20260505181153 | 16 | 223 | 3.2 | 3.2 | 0.00 | 0.00 | 0.00 | 76 | 1019.6 |
| 20260505180649 | 16 | 201 | 0.0 | 0.0 | 0.00 | 0.00 | 0.00 | 78 | 1019.3 |
| 20260505180147 | 15 | 212 | 0.0 | 1.6 | 0.00 | 0.00 | 0.00 | 78 | 1019.3 |
| 20260505175642 | 15 | 212 | 0.0 | 1.6 | 0.00 | 0.00 | 0.00 | 79 | 1019.3 |
| 20260505175139 | 15 | 206 | 0.0 | 0.0 | 0.00 | 0.00 | 0.00 | 80 | 1019.3 |
| 20260505174636 | 15 | 203 | 0.0 | 0.0 | 0.00 | 0.00 | 0.00 | 80 | 1018.9 |
| 20260505174132 | 15 | 202 | 0.0 | 1.6 | 0.00 | 0.00 | 0.00 | 80 | 1019.6 |
| 20260505173629 | 15 | 212 | 0.0 | 0.0 | 0.00 | 0.00 | 0.00 | 80 | 1019.3 |
| 20260505173125 | 15 | 203 | 0.0 | 1.6 | 0.00 | 0.00 | 0.00 | 79 | 1019.3 |
| 20260505172623 | 14 | 212 | 0.0 | 0.0 | 0.00 | 0.00 | 0.00 | 81 | 1019.3 |
| 20260505172120 | 14 | 198 | 1.6 | 1.6 | 0.00 | 0.00 | 0.00 | 82 | 1019.3 |
| 20260505171614 | 13 | 202 | 3.2 | 3.2 | 0.00 | 0.00 | 0.00 | 82 | 1018.9 |
| 20260505171112 | 14 | 198 | 6.4 | 8.0 | 0.00 | 0.00 | 0.00 | 81 | 1019.3 |
| 20260505170609 | 15 | 221 | 3.2 | 3.2 | 0.00 | 0.00 | 0.00 | 80 | 1018.9 |
| 20260505170105 | 15 | 249 | 3.2 | 3.2 | 0.00 | 0.00 | 0.00 | 79 | 1019.3 |
| 20260505165559 | 15 | 196 | 1.6 | 1.6 | 0.00 | 0.00 | 0.00 | 80 | 1019.3 |
| 20260505165056 | 14 | 221 | 1.6 | 1.6 | 0.00 | 0.00 | 0.00 | 81 | 1018.9 |
| 20260505164552 | 14 | 227 | 0.0 | 0.0 | 0.00 | 0.00 | 0.00 | 83 | 1019.3 |
| 20260505164050 | 13 | 178 | 1.6 | 1.6 | 0.00 | 0.00 | 0.00 | 83 | 1018.9 |
| 20260505163549 | 13 | 202 | 1.6 | 1.6 | 0.00 | 0.00 | 0.00 | 83 | 1018.9 |
| 20260505163045 | 13 | 265 | 4.8 | 4.8 | 0.00 | 0.00 | 0.00 | 82 | 1018.9 |
| 20260505162543 | 13 | 219 | 0.0 | 1.6 | 0.00 | 0.00 | 0.00 | 84 | 1018.9 |
| 20260505162041 | 13 | 216 | 3.2 | 3.2 | 0.00 | 0.00 | 0.00 | 83 | 1018.9 |
| 20260505161538 | 13 | 220 | 0.0 | 0.0 | 0.00 | 0.00 | 0.00 | 85 | 1018.9 |
| 20260505161035 | 13 | 224 | 1.6 | 1.6 | 0.00 | 0.00 | 0.00 | 85 | 1019.3 |
| 20260505160533 | 13 | 200 | 1.6 | 1.6 | 0.00 | 0.00 | 0.00 | 86 | 1018.9 |
| 20260505153009 | 12 | 229 | 1.6 | 3.2 | 0.00 | 0.00 | 0.00 | 86 | 1018.9 |
| 20260505152506 | 12 | 223 | 1.6 | 1.6 | 0.00 | 0.00 | 0.00 | 87 | 1018.6 |
| 20260505152002 | 12 | 218 | 0.0 | 1.6 | 0.00 | 0.00 | 0.00 | 88 | 1018.9 |
| 20260505151457 | 12 | 218 | 3.2 | 3.2 | 0.00 | 0.00 | 0.00 | 88 | 1018.9 |
| 20260505150955 | 12 | 228 | 3.2 | 3.2 | 0.00 | 0.00 | 0.00 | 88 | 1018.6 |
| 20260505150451 | 12 | 246 | 1.6 | 3.2 | 0.00 | 0.00 | 0.00 | 89 | 1019.3 |
| 20260505140422 | 12 | 218 | 1.6 | 1.6 | 0.00 | 0.00 | 0.00 | 91 | 1018.2 |
| 20260505124835 | 11 | 205 | 1.6 | 1.6 | 0.00 | 0.00 | 0.00 | 92 | 1017.9 |
| 20260505124332 | 12 | 232 | 0.0 | 1.6 | 0.00 | 0.00 | 0.00 | 92 | 1017.9 |
| 20260505123828 | 12 | 220 | 0.0 | 0.0 | 0.00 | 0.00 | 0.00 | 91 | 1017.6 |
| 20260505123324 | 12 | 221 | 0.0 | 1.6 | 0.00 | 0.00 | 0.00 | 91 | 1017.6 |
| 20260505122821 | 12 | 220 | 0.0 | 0.0 | 0.00 | 0.00 | 0.00 | 91 | 1017.9 |
| 20260505122318 | 12 | 199 | 0.0 | 1.6 | 0.00 | 0.00 | 0.00 | 91 | 1017.6 |
| 20260505121815 | 12 | 211 | 0.0 | 0.0 | 0.00 | 0.00 | 0.00 | 91 | 1017.9 |
| 20260505121312 | 12 | 218 | 1.6 | 1.6 | 0.00 | 0.00 | 0.00 | 91 | 1017.6 |
| 20260505120808 | 12 | 212 | 0.0 | 0.0 | 0.00 | 0.00 | 0.00 | 90 | 1017.6 |
| 20260505120304 | 12 | 212 | 0.0 | 0.0 | 0.00 | 0.00 | 0.00 | 90 | 1017.6 |
| 20260505115802 | 12 | 218 | 0.0 | 0.0 | 0.00 | 0.00 | 0.00 | 90 | 1017.6 |
| 20260505115300 | 12 | 214 | 1.6 | 1.6 | 0.00 | 0.00 | 0.00 | 90 | 1017.6 |
| 20260505114757 | 12 | 216 | 0.0 | 0.0 | 0.00 | 0.00 | 0.00 | 89 | 1017.9 |
| 20260505114254 | 12 | 210 | 0.0 | 0.0 | 0.00 | 0.00 | 0.00 | 89 | 1017.9 |
| 20260505113750 | 12 | 209 | 1.6 | 1.6 | 0.00 | 0.00 | 0.00 | 89 | 1017.6 |
| 20260505113247 | 12 | 219 | 1.6 | 1.6 | 0.00 | 0.00 | 0.00 | 89 | 1017.9 |
| 20260505112743 | 12 | 217 | 4.8 | 4.8 | 0.00 | 0.00 | 0.00 | 89 | 1017.6 |
| 20260505112241 | 12 | 190 | 3.2 | 3.2 | 0.00 | 0.00 | 0.00 | 89 | 1017.6 |
| 20260505111740 | 12 | 206 | 0.0 | 0.0 | 0.00 | 0.00 | 0.00 | 89 | 1017.6 |
| 20260505111236 | 12 | 209 | 1.6 | 1.6 | 0.00 | 0.00 | 0.00 | 89 | 1017.6 |
| 20260505110732 | 12 | 225 | 1.6 | 3.2 | 0.00 | 0.00 | 0.00 | 89 | 1017.2 |
| 20260505110230 | 12 | 179 | 1.6 | 3.2 | 0.00 | 0.00 | 0.00 | 89 | 1017.6 |
| 20260505102205 | 12 | 196 | 1.6 | 1.6 | 0.00 | 0.00 | 0.00 | 90 | 1017.2 |
| 20260505101704 | 12 | 190 | 1.6 | 1.6 | 0.00 | 0.00 | 0.00 | 90 | 1017.6 |
| 20260505101200 | 12 | 187 | 3.2 | 3.2 | 0.00 | 0.00 | 0.00 | 90 | 1017.2 |
| 20260505100656 | 12 | 184 | 3.2 | 3.2 | 0.00 | 0.00 | 0.00 | 90 | 1017.2 |
| 20260505100154 | 12 | 183 | 1.6 | 1.6 | 0.00 | 0.00 | 0.00 | 90 | 1017.2 |
| 20260505095649 | 12 | 202 | 0.0 | 1.6 | 0.00 | 0.00 | 0.00 | 90 | 1017.2 |
| 20260505095147 | 12 | 201 | 0.0 | 1.6 | 0.00 | 0.00 | 0.00 | 90 | 1017.2 |
| 20260505094642 | 12 | 196 | 1.6 | 1.6 | 0.00 | 0.00 | 0.00 | 90 | 1017.2 |
| 20260505094139 | 12 | 196 | 1.6 | 1.6 | 0.00 | 0.00 | 0.00 | 90 | 1016.9 |
| 20260505093635 | 12 | 209 | 0.0 | 0.0 | 0.00 | 0.00 | 0.00 | 89 | 1016.9 |
| 20260505093133 | 12 | 188 | 1.6 | 3.2 | 0.00 | 0.00 | 0.00 | 89 | 1016.9 |
| 20260505092630 | 12 | 186 | 1.6 | 3.2 | 0.00 | 0.00 | 0.00 | 89 | 1017.2 |
| 20260505092129 | 12 | 196 | 1.6 | 1.6 | 0.00 | 0.00 | 0.00 | 89 | 1017.2 |
| 20260505091625 | 12 | 203 | 1.6 | 3.2 | 0.00 | 0.00 | 0.00 | 89 | 1017.2 |
| 20260505091123 | 12 | 201 | 3.2 | 3.2 | 0.00 | 0.00 | 0.00 | 89 | 1016.9 |
| 20260505090621 | 12 | 197 | 3.2 | 3.2 | 0.00 | 0.00 | 0.00 | 89 | 1016.9 |
| 20260505090119 | 12 | 185 | 3.2 | 3.2 | 0.00 | 0.00 | 0.00 | 89 | 1016.9 |
| 20260505085616 | 12 | 206 | 1.6 | 1.6 | 0.00 | 0.00 | 0.00 | 89 | 1016.9 |
| 20260505085114 | 12 | 212 | 0.0 | 0.0 | 0.00 | 0.00 | 0.00 | 89 | 1017.2 |
| 20260505084611 | 12 | 182 | 3.2 | 3.2 | 0.00 | 0.00 | 0.00 | 89 | 1016.9 |
| 20260505084110 | 12 | 213 | 1.6 | 1.6 | 0.00 | 0.00 | 0.00 | 89 | 1017.2 |
| 20260505083607 | 12 | 207 | 1.6 | 3.2 | 0.00 | 0.00 | 0.00 | 90 | 1016.9 |
| 20260505083103 | 11 | 211 | 0.0 | 0.0 | 0.00 | 0.00 | 0.00 | 90 | 1016.9 |
| 20260505082559 | 12 | 210 | 1.6 | 3.2 | 0.00 | 0.00 | 0.00 | 90 | 1016.5 |
| 20260505082056 | 12 | 197 | 3.2 | 3.2 | 0.00 | 0.00 | 0.00 | 90 | 1016.9 |
| 20260505081552 | 12 | 172 | 3.2 | 3.2 | 0.00 | 0.00 | 0.00 | 90 | 1016.9 |
| 20260505081050 | 12 | 196 | 1.6 | 1.6 | 0.00 | 0.00 | 0.00 | 90 | 1016.9 |
| 20260505080546 | 12 | 193 | 1.6 | 3.2 | 0.00 | 0.00 | 0.00 | 90 | 1016.9 |
| 20260505080043 | 12 | 195 | 1.6 | 1.6 | 0.00 | 0.00 | 0.00 | 90 | 1016.9 |
| 20260505075538 | 12 | 207 | 0.0 | 0.0 | 0.00 | 0.00 | 0.00 | 90 | 1016.5 |
| 20260505075035 | 12 | 201 | 1.6 | 1.6 | 0.00 | 0.00 | 0.00 | 90 | 1016.5 |
| 20260505074532 | 12 | 191 | 4.8 | 4.8 | 0.00 | 0.00 | 0.00 | 90 | 1016.5 |
| 20260505074030 | 12 | 200 | 1.6 | 1.6 | 0.00 | 0.00 | 0.00 | 90 | 1016.9 |
| 20260505073527 | 11 | 184 | 4.8 | 8.0 | 0.00 | 0.00 | 0.00 | 90 | 1016.9 |
| 20260505073025 | 11 | 198 | 1.6 | 1.6 | 0.00 | 0.00 | 0.00 | 90 | 1016.5 |
| 20260505072520 | 11 | 193 | 1.6 | 3.2 | 0.00 | 0.00 | 0.00 | 90 | 1016.9 |
| 20260505072017 | 12 | 207 | 0.0 | 0.0 | 0.00 | 0.00 | 0.00 | 90 | 1016.9 |
| 20260505071513 | 12 | 200 | 1.6 | 1.6 | 0.00 | 0.00 | 0.00 | 89 | 1016.5 |
| 20260505071011 | 12 | 219 | 1.6 | 1.6 | 0.00 | 0.00 | 0.00 | 90 | 1016.5 |
| 20260505070508 | 12 | 213 | 1.6 | 1.6 | 0.00 | 0.00 | 0.00 | 89 | 1016.5 |
| 20260505070004 | 12 | 211 | 3.2 | 3.2 | 0.00 | 0.00 | 0.00 | 89 | 1016.5 |
| 20260505065500 | 12 | 211 | 4.8 | 4.8 | 0.00 | 0.00 | 0.00 | 89 | 1016.2 |
| 20260505064956 | 12 | 203 | 1.6 | 3.2 | 0.00 | 0.00 | 0.00 | 89 | 1016.5 |
| 20260505064453 | 12 | 208 | 3.2 | 3.2 | 0.00 | 0.00 | 0.00 | 89 | 1016.2 |
| 20260505063952 | 12 | 211 | 1.6 | 1.6 | 0.00 | 0.00 | 0.00 | 89 | 1016.2 |
| 20260505063448 | 12 | 213 | 0.0 | 0.0 | 0.00 | 0.00 | 0.00 | 89 | 1016.2 |
| 20260505062945 | 12 | 207 | 1.6 | 1.6 | 0.00 | 0.00 | 0.00 | 89 | 1016.2 |
| 20260505062442 | 12 | 209 | 1.6 | 3.2 | 0.00 | 0.00 | 0.00 | 88 | 1016.2 |
| 20260505061938 | 12 | 194 | 1.6 | 1.6 | 0.00 | 0.00 | 0.00 | 88 | 1016.2 |
| 20260505061437 | 12 | 214 | 4.8 | 4.8 | 0.00 | 0.00 | 0.00 | 88 | 1016.2 |
| 20260505060934 | 12 | 209 | 0.0 | 0.0 | 0.00 | 0.00 | 0.00 | 88 | 1016.2 |
| 20260505060431 | 12 | 207 | 3.2 | 3.2 | 0.00 | 0.00 | 0.00 | 88 | 1016.2 |
| 20260505055927 | 12 | 206 | 1.6 | 1.6 | 0.00 | 0.00 | 0.00 | 87 | 1016.2 |
| 20260505055423 | 12 | 223 | 1.6 | 3.2 | 0.00 | 0.00 | 0.00 | 87 | 1016.2 |
| 20260505054920 | 12 | 211 | 1.6 | 1.6 | 0.00 | 0.00 | 0.00 | 87 | 1016.2 |
| 20260505054417 | 12 | 204 | 4.8 | 8.0 | 0.00 | 0.00 | 0.00 | 87 | 1016.2 |
| 20260505053915 | 12 | 187 | 1.6 | 3.2 | 0.00 | 0.00 | 0.00 | 87 | 1016.2 |
| 20260505053412 | 12 | 234 | 4.8 | 4.8 | 0.00 | 0.00 | 0.00 | 87 | 1016.2 |
| 20260505052909 | 12 | 209 | 3.2 | 3.2 | 0.00 | 0.00 | 0.00 | 87 | 1016.2 |
| 20260505052406 | 12 | 221 | 3.2 | 3.2 | 0.00 | 0.00 | 0.00 | 87 | 1015.9 |
| 20260505051903 | 13 | 217 | 1.6 | 3.2 | 0.00 | 0.00 | 0.00 | 86 | 1016.2 |
| 20260505051400 | 13 | 217 | 6.4 | 8.0 | 0.00 | 0.00 | 0.00 | 86 | 1016.2 |
| 20260505050858 | 13 | 211 | 0.0 | 1.6 | 0.00 | 0.00 | 0.00 | 86 | 1015.9 |
| 20260505050357 | 13 | 201 | 1.6 | 1.6 | 0.00 | 0.00 | 0.00 | 86 | 1015.9 |
| 20260505041324 | 14 | 212 | 0.0 | 1.6 | 0.00 | 0.00 | 0.00 | 83 | 1015.2 |
| 20260505040821 | 15 | 204 | 3.2 | 3.2 | 0.00 | 0.00 | 0.00 | 82 | 1015.2 |
| 20260505040319 | 15 | 191 | 4.8 | 8.0 | 0.00 | 0.00 | 0.00 | 81 | 1014.9 |
| 20260505035815 | 15 | 197 | 4.8 | 4.8 | 0.00 | 0.00 | 0.00 | 81 | 1014.9 |
| 20260505035311 | 15 | 205 | 1.6 | 1.6 | 0.00 | 0.00 | 0.00 | 80 | 1014.9 |
| 20260505034808 | 15 | 211 | 3.2 | 3.2 | 0.00 | 0.00 | 0.00 | 79 | 1014.5 |
| 20260505034305 | 15 | 197 | 1.6 | 1.6 | 0.00 | 0.00 | 0.00 | 79 | 1014.5 |
| 20260505033802 | 16 | 209 | 0.0 | 1.6 | 0.00 | 0.00 | 0.00 | 78 | 1014.9 |
| 20260505033259 | 16 | 217 | 4.8 | 4.8 | 0.00 | 0.00 | 0.00 | 77 | 1014.5 |
| 20260505032757 | 16 | 216 | 0.0 | 0.0 | 0.00 | 0.00 | 0.00 | 76 | 1014.5 |
| 20260505032253 | 16 | 204 | 1.6 | 1.6 | 0.00 | 0.00 | 0.00 | 75 | 1014.2 |
| 20260505031750 | 16 | 204 | 1.6 | 1.6 | 0.00 | 0.00 | 0.00 | 75 | 1014.5 |
| 20260505031246 | 17 | 212 | 3.2 | 3.2 | 0.00 | 0.00 | 0.00 | 74 | 1014.2 |
| 20260505030743 | 17 | 209 | 3.2 | 4.8 | 0.00 | 0.00 | 0.00 | 73 | 1014.2 |
| 20260505030240 | 17 | 196 | 0.0 | 1.6 | 0.00 | 0.00 | 0.00 | 73 | 1014.2 |
| 20260505025735 | 18 | 205 | 0.0 | 0.0 | 0.00 | 0.00 | 0.00 | 71 | 1013.8 |
| 20260505025234 | 18 | 206 | 0.0 | 1.6 | 0.00 | 0.00 | 0.00 | 71 | 1014.2 |
| 20260505024732 | 18 | 205 | 0.0 | 1.6 | 0.00 | 0.00 | 0.00 | 71 | 1013.5 |
| 20260505024229 | 18 | 295 | 1.6 | 3.2 | 0.00 | 0.00 | 0.00 | 71 | 1013.8 |
| 20260505023726 | 18 | 224 | 3.2 | 3.2 | 0.00 | 0.00 | 0.00 | 72 | 1013.5 |
| 20260505023223 | 19 | 200 | 4.8 | 8.0 | 0.00 | 0.00 | 0.00 | 72 | 1013.5 |
| 20260505022721 | 19 | 209 | 0.0 | 1.6 | 0.00 | 0.00 | 0.00 | 72 | 1013.8 |
| 20260505022217 | 19 | 214 | 1.6 | 3.2 | 0.00 | 0.00 | 0.00 | 71 | 1013.5 |
| 20260505021714 | 20 | 220 | 4.8 | 11.3 | 0.00 | 0.00 | 0.00 | 71 | 1013.5 |
| 20260505021211 | 20 | 209 | 3.2 | 4.8 | 0.00 | 0.00 | 0.00 | 70 | 1013.5 |
| 20260505020707 | 20 | 226 | 3.2 | 4.8 | 0.00 | 0.00 | 0.00 | 70 | 1013.5 |
| 20260505020202 | 20 | 198 | 4.8 | 8.0 | 0.00 | 0.00 | 0.00 | 70 | 1013.5 |
| 20260505015700 | 20 | 216 | 6.4 | 9.7 | 0.00 | 0.00 | 0.00 | 69 | 1013.5 |
| 20260505015156 | 20 | 273 | 4.8 | 8.0 | 0.00 | 0.00 | 0.00 | 69 | 1013.5 |
| 20260505014654 | 20 | 238 | 1.6 | 1.6 | 0.00 | 0.00 | 0.00 | 68 | 1013.5 |
| 20260505014150 | 21 | 289 | 6.4 | 9.7 | 0.00 | 0.00 | 0.00 | 67 | 1013.5 |
| 20260505013648 | 21 | 186 | 11.3 | 12.9 | 0.00 | 0.00 | 0.00 | 68 | 1013.5 |
| 20260505013145 | 21 | 8 | 8.0 | 9.7 | 0.00 | 0.00 | 0.00 | 68 | 1013.2 |
| 20260505012643 | 21 | 243 | 4.8 | 4.8 | 0.00 | 0.00 | 0.00 | 68 | 1013.5 |
| 20260505012140 | 21 | 221 | 1.6 | 3.2 | 0.00 | 0.00 | 0.00 | 67 | 1013.2 |
| 20260505011635 | 21 | 204 | 3.2 | 4.8 | 0.00 | 0.00 | 0.00 | 67 | 1013.8 |
| 20260505011133 | 21 | 339 | 8.0 | 12.9 | 0.00 | 0.00 | 0.00 | 66 | 1013.8 |
| 20260505010633 | 21 | 215 | 4.8 | 8.0 | 0.00 | 0.00 | 0.00 | 67 | 1013.5 |
| 20260505010130 | 21 | 223 | 3.2 | 4.8 | 0.00 | 0.00 | 0.00 | 67 | 1013.5 |
| 20260505005626 | 22 | 228 | 4.8 | 8.0 | 0.00 | 0.00 | 0.00 | 67 | 1013.8 |
| 20260505005124 | 22 | 277 | 6.4 | 9.7 | 0.00 | 0.00 | 0.00 | 65 | 1013.8 |
| 20260505004621 | 22 | 265 | 3.2 | 4.8 | 0.00 | 0.00 | 0.00 | 65 | 1013.5 |
| 20260505004117 | 22 | 202 | 3.2 | 4.8 | 0.00 | 0.00 | 0.00 | 66 | 1013.5 |
| 20260505003615 | 22 | 247 | 8.0 | 12.9 | 0.00 | 0.00 | 0.00 | 65 | 1013.8 |
| 20260505003112 | 22 | 243 | 3.2 | 4.8 | 0.00 | 0.00 | 0.00 | 64 | 1013.8 |
| 20260505002608 | 22 | 222 | 1.6 | 1.6 | 0.00 | 0.00 | 0.00 | 66 | 1013.5 |
| 20260505002106 | 23 | 228 | 1.6 | 3.2 | 0.00 | 0.00 | 0.00 | 65 | 1013.5 |
| 20260505001603 | 23 | 206 | 1.6 | 1.6 | 0.00 | 0.00 | 0.00 | 63 | 1013.5 |
| 20260505001101 | 23 | 220 | 0.0 | 0.0 | 0.00 | 0.00 | 0.00 | 62 | 1013.8 |
| 20260505000557 | 22 | 177 | 8.0 | 9.7 | 0.00 | 0.00 | 0.00 | 63 | 1013.8 |
| 20260505000055 | 22 | 185 | 4.8 | 4.8 | 0.00 | 0.00 | 0.00 | 65 | 1013.8 |
| 20260504235552 | 22 | 172 | 4.8 | 4.8 | 0.00 | 0.00 | 0.00 | 64 | 1013.8 |
| 20260504235048 | 23 | 166 | 6.4 | 8.0 | 0.00 | 0.00 | 0.00 | 62 | 1013.8 |
| 20260504234545 | 23 | 214 | 3.2 | 3.2 | 0.00 | 0.00 | 0.00 | 63 | 1013.8 |
| 20260504234042 | 23 | 221 | 3.2 | 4.8 | 0.00 | 0.00 | 0.00 | 61 | 1013.8 |
| 20260504233538 | 22 | 210 | 0.0 | 0.0 | 0.00 | 0.00 | 0.00 | 62 | 1013.8 |
| 20260504233035 | 22 | 193 | 1.6 | 3.2 | 0.00 | 0.00 | 0.00 | 64 | 1014.2 |
| 20260504232532 | 23 | 175 | 12.9 | 14.5 | 0.00 | 0.00 | 0.00 | 62 | 1014.2 |
| 20260504232030 | 22 | 194 | 8.0 | 11.3 | 0.00 | 0.00 | 0.00 | 62 | 1014.2 |
| 20260504231526 | 23 | 178 | 6.4 | 8.0 | 0.00 | 0.00 | 0.00 | 61 | 1014.2 |
| 20260504231022 | 23 | 195 | 4.8 | 4.8 | 0.00 | 0.00 | 0.00 | 62 | 1014.2 |
| 20260504230519 | 23 | 235 | 1.6 | 1.6 | 0.00 | 0.00 | 0.00 | 61 | 1014.2 |
| 20260504230018 | 22 | 193 | 1.6 | 3.2 | 0.00 | 0.00 | 0.00 | 64 | 1014.2 |
| 20260504225514 | 22 | 208 | 4.8 | 8.0 | 0.00 | 0.00 | 0.00 | 65 | 1014.2 |
| 20260504225011 | 22 | 193 | 4.8 | 4.8 | 0.00 | 0.00 | 0.00 | 64 | 1014.5 |
| 20260504224508 | 22 | 226 | 1.6 | 1.6 | 0.00 | 0.00 | 0.00 | 64 | 1014.5 |
| 20260504224005 | 22 | 155 | 6.4 | 9.7 | 0.00 | 0.00 | 0.00 | 61 | 1014.5 |
| 20260504223501 | 21 | 215 | 3.2 | 3.2 | 0.00 | 0.00 | 0.00 | 64 | 1014.5 |
| 20260504222956 | 22 | 176 | 4.8 | 9.7 | 0.00 | 0.00 | 0.00 | 65 | 1014.5 |
| 20260504222454 | 22 | 136 | 4.8 | 8.0 | 0.00 | 0.00 | 0.00 | 63 | 1014.5 |
| 20260504221952 | 21 | 162 | 3.2 | 3.2 | 0.00 | 0.00 | 0.00 | 64 | 1014.9 |
| 20260504221449 | 22 | 167 | 4.8 | 9.7 | 0.00 | 0.00 | 0.00 | 64 | 1014.9 |
| 20260504220946 | 21 | 172 | 8.0 | 9.7 | 0.00 | 0.00 | 0.00 | 64 | 1014.9 |
| 20260504220442 | 21 | 185 | 3.2 | 4.8 | 0.00 | 0.00 | 0.00 | 65 | 1014.9 |
| 20260504215939 | 21 | 131 | 6.4 | 8.0 | 0.00 | 0.00 | 0.00 | 65 | 1014.9 |
| 20260504215436 | 21 | 211 | 6.4 | 9.7 | 0.00 | 0.00 | 0.00 | 65 | 1015.2 |
| 20260504214933 | 21 | 159 | 6.4 | 9.7 | 0.00 | 0.00 | 0.00 | 67 | 1014.9 |
| 20260504214429 | 20 | 175 | 3.2 | 4.8 | 0.00 | 0.00 | 0.00 | 67 | 1015.2 |
| 20260504213926 | 20 | 158 | 8.0 | 11.3 | 0.00 | 0.00 | 0.00 | 68 | 1015.2 |
| 20260504213422 | 21 | 167 | 12.9 | 14.5 | 0.00 | 0.00 | 0.00 | 66 | 1015.2 |
| 20260504212920 | 20 | 153 | 4.8 | 4.8 | 0.00 | 0.00 | 0.00 | 66 | 1015.2 |
| 20260504212415 | 20 | 210 | 1.6 | 1.6 | 0.00 | 0.00 | 0.00 | 69 | 1015.5 |
| 20260504211913 | 20 | 96 | 8.0 | 9.7 | 0.00 | 0.00 | 0.00 | 68 | 1015.2 |
| 20260504211409 | 20 | 170 | 4.8 | 4.8 | 0.00 | 0.00 | 0.00 | 66 | 1015.2 |
| 20260504210906 | 20 | 189 | 8.0 | 14.5 | 0.00 | 0.00 | 0.00 | 67 | 1015.5 |
| 20260504210403 | 20 | 176 | 9.7 | 11.3 | 0.00 | 0.00 | 0.00 | 70 | 1015.2 |
| 20260504205900 | 20 | 182 | 4.8 | 4.8 | 0.00 | 0.00 | 0.00 | 70 | 1015.5 |
| 20260504205358 | 20 | 139 | 8.0 | 11.3 | 0.00 | 0.00 | 0.00 | 67 | 1015.5 |
| 20260504204856 | 19 | 132 | 8.0 | 9.7 | 0.00 | 0.00 | 0.00 | 69 | 1015.9 |
| 20260504204354 | 20 | 156 | 6.4 | 8.0 | 0.00 | 0.00 | 0.00 | 66 | 1015.9 |
| 20260504203854 | 19 | 214 | 1.6 | 1.6 | 0.00 | 0.00 | 0.00 | 69 | 1015.9 |
| 20260504203350 | 19 | 233 | 6.4 | 9.7 | 0.00 | 0.00 | 0.00 | 70 | 1015.9 |
| 20260504202846 | 19 | 176 | 4.8 | 8.0 | 0.00 | 0.00 | 0.00 | 69 | 1015.9 |
| 20260504202343 | 18 | 234 | 0.0 | 1.6 | 0.00 | 0.00 | 0.00 | 71 | 1015.9 |
| 20260504201839 | 18 | 171 | 12.9 | 14.5 | 0.00 | 0.00 | 0.00 | 69 | 1015.9 |
| 20260504201337 | 19 | 120 | 12.9 | 16.1 | 0.00 | 0.00 | 0.00 | 70 | 1016.2 |
| 20260504200834 | 18 | 128 | 6.4 | 9.7 | 0.00 | 0.00 | 0.00 | 71 | 1016.2 |
| 20260504200331 | 18 | 203 | 4.8 | 9.7 | 0.00 | 0.00 | 0.00 | 72 | 1016.2 |